Location: Crab Orchard
(37.7292°N, 88.8042°W)
Time: 12:45:48
(UTC+00:00)

OAO 3 Rocket - Pass Details

Date: 08 December 2019
Orbit: 629 x 683 km, 35.0° (Epoch: 18 January)

Event Time Altitude Azimuth Distance (km) Brightness Sun altitude
Rises 22:59:26 0° 241° (WSW) 2,911 9.4 -4.9°
Reaches altitude 10° 23:01:51 10° 234° (SW) 2,011 7.4 -5.4°
Maximum altitude 23:06:16 42° 164° (SSE) 912 4.0 -6.2°
Drops below altitude 10° 23:10:45 10° 93° (E) 2,045 5.2 -7.0°
Enters shadow 23:11:36 - 90° (E) 2,356 5.5 -7.1°
